User: anonymous   Login
Location: *
(17.3280°S, 114.7300°W)
Time: 16:21:26
(UTC+00:00)
Language:

PSLV R/B - Orbit

View from above orbital plane
View from above orbital plane
View from above satellite
View from above satellite

Ground track
Ground track

The orbit data is extracted from the following two-line orbital elements,

1 36800U 10035F   20296.14698745  .00000146  00000-0  19308-4 0  9995
2 36800  98.1640 118.8065 0020758 259.9870  99.9007 14.94764177559742
Epoch (UTC): 22 October 2020 03:31:39
Eccentricity: 0.0020758
inclination: 98.1640°
perigee height: 568 km
apogee height: 597 km
right ascension of ascending node: 118.8065°
argument of perigee: 259.9870°
revolutions per day: 14.94764177
mean anomaly at epoch: 99.9007°
orbit number at epoch: 55974

The dashed part of the orbit path shows where the satellite is in the earth's shadow,  

DLR